Location: Budapest
(47.4979°N, 19.0402°E)
Time: 14:35:13
(UTC+01:00)

Vanguard 3 - All Passes

Search period start: 23 January 2018 00:00
Search period end: 02 February 2018 00:00
Orbit: 508 x 3264 km, 33.4° (Epoch: 23 January)

Date Brightness Start Highest point End Pass type
(mag) Time Alt. Az. Time Alt. Az. Time Alt. Az.
23 Jan - 00:10:11 10° SW 00:22:49 45° SSE 00:40:28 10° E visible
23 Jan - 02:21:49 10° WSW 02:37:22 50° S 02:55:54 10° ESE visible
23 Jan - 04:35:54 10° W 04:52:08 37° SSW 05:08:12 10° SSE visible
23 Jan - 06:54:51 10° W 07:05:01 17° SW 07:14:25 10° SSW daylight
23 Jan - 20:52:32 10° SSE 20:57:03 13° SE 21:02:25 10° ESE night (unlit)
23 Jan - 22:57:26 10° SSW 23:07:56 36° SSE 23:23:16 10° E visible
24 Jan - 01:07:41 10° WSW 01:21:27 50° S 01:39:56 10° ESE visible
24 Jan - 03:20:24 10° W 03:36:19 44° SSW 03:54:02 10° SE visible
24 Jan - 05:36:09 10° W 05:50:17 26° SW 06:03:50 10° S visible
24 Jan - 21:45:41 10° S 21:53:50 25° SE 22:05:25 10° E night (unlit)
24 Jan - 23:54:14 10° SW 00:06:00 45° SSE 00:23:15 10° E visible
25 Jan - 02:05:44 10° WSW 02:20:21 48° S 02:38:48 10° ESE visible
25 Jan - 04:19:37 10° W 04:34:57 35° SSW 04:51:01 10° SSE visible
25 Jan - 06:39:22 10° WSW 06:47:52 14° SW 06:56:04 10° SSW visible
25 Jan - 20:35:58 10° SSE 20:40:29 14° SE 20:45:59 10° ESE night (unlit)
25 Jan - 22:41:31 10° SW 22:51:16 36° SSE 23:06:03 10° E visible
26 Jan - 00:51:45 10° WSW 01:04:36 49° S 01:22:42 10° ESE visible
26 Jan - 03:04:16 10° W 03:19:14 42° SSW 03:36:50 10° SE visible
26 Jan - 05:20:04 10° W 05:33:06 23° SW 05:46:13 10° S visible
26 Jan - 21:29:43 10° SSW 21:37:18 25° SE 21:48:20 10° E night (unlit)
26 Jan - 23:38:25 10° SW 23:49:20 45° SSE 00:05:58 10° ESE visible
27 Jan - 01:49:46 10° WSW 02:03:25 46° S 02:21:32 10° SE visible
27 Jan - 04:03:31 10° W 04:17:49 32° SSW 04:33:35 10° SSE visible
27 Jan - 06:24:53 10° WSW 06:30:44 12° SW 06:36:33 10° SSW visible
27 Jan - 20:19:40 10° SSE 20:24:01 14° SE 20:29:25 10° ESE night (unlit)
27 Jan - 22:25:45 10° SW 22:34:44 36° SSE 22:48:47 10° E night (unlit)
28 Jan - 00:35:56 10° WSW 00:47:50 47° S 01:05:22 10° ESE visible
28 Jan - 02:48:18 10° W 03:02:13 39° SSW 03:19:25 10° SE visible
28 Jan - 05:04:18 10° W 05:15:58 21° SW 05:28:11 10° S visible
28 Jan - 21:13:54 10° SSW 21:20:53 26° SE 21:31:15 10° E night (unlit)
28 Jan - 23:22:42 10° SW 23:32:46 44° S 23:48:36 10° ESE visible
29 Jan - 01:33:56 10° WSW 01:46:35 43° SSW 02:04:06 10° SE visible
29 Jan - 03:47:38 10° W 04:00:45 29° SSW 04:15:51 10° SSE visible
29 Jan - 20:03:36 10° SSE 20:07:41 14° SE 20:12:49 10° ESE visible
29 Jan - 22:10:05 10° SW 22:18:20 36° SSE 22:31:30 10° E night (unlit)
30 Jan - 00:20:14 10° WSW 00:31:13 45° S 00:47:56 10° ESE visible
30 Jan - 02:32:28 10° W 02:45:17 35° SSW 03:01:47 10° SSE visible
30 Jan - 04:48:59 10° WSW 04:58:55 17° SW 05:09:36 10° S visible
30 Jan - 20:58:11 10° SSW 21:04:35 26° SSE 21:14:12 10° E night (unlit)
30 Jan - 23:07:06 10° WSW 23:16:20 42° S 23:31:13 10° ESE visible
31 Jan - 01:18:14 10° WSW 01:29:51 40° SSW 01:46:31 10° SE visible
31 Jan - 03:31:59 10° W 03:43:47 25° SSW 03:57:47 10° SSE visible
31 Jan - 19:47:41 10° SSE 19:51:28 14° SE 19:56:13 10° ESE visible
31 Jan - 21:54:31 10° SW 22:02:04 35° SSE 22:14:15 10° ESE night (unlit)
01 Feb - 00:04:39 10° WSW 00:14:43 42° S 00:30:24 10° ESE visible
01 Feb - 02:16:50 10° WSW 02:28:29 32° SSW 02:43:55 10° SSE visible
01 Feb - 04:34:21 10° WSW 04:41:58 14° SW 04:50:12 10° SSW visible
01 Feb - 20:42:35 10° SSW 20:48:25 25° SSE 20:57:12 10° ESE visible
01 Feb - 22:51:36 10° WSW 23:00:01 40° S 23:13:48 10° ESE night (unlit)
